| time (UTC) | temp F | wind direction | speed MPH | gust MPH | rain 1hr in | rain 24hr in | rain mn in | humidity % | barometer mb |
| 20260505113015 | 35 | 360 | 2.0 | 8.0 | 0.02 | 0.36 | 0.32 | 91 | 1014.5 |
| 20260505111523 | 35 | 313 | 2.0 | 8.0 | 0.04 | 0.36 | 0.32 | 91 | 1014.4 |
| 20260505101527 | 36 | 19 | 2.0 | 9.0 | 0.06 | 0.32 | 0.28 | 90 | 1014.1 |
| 20260505100029 | 36 | 304 | 3.0 | 9.0 | 0.04 | 0.29 | 0.25 | 90 | 1013.9 |
| 20260505094519 | 37 | 252 | 2.0 | 10.0 | 0.06 | 0.29 | 0.25 | 90 | 1013.9 |
| 20260505093014 | 38 | 302 | 2.0 | 10.0 | 0.08 | 0.28 | 0.24 | 90 | 1013.8 |
| 20260505091512 | 40 | 315 | 2.0 | 10.0 | 0.08 | 0.26 | 0.22 | 90 | 1013.7 |
| 20260505090010 | 40 | 25 | 1.0 | 8.0 | 0.07 | 0.25 | 0.21 | 90 | 1013.7 |
| 20260505084512 | 41 | 323 | 3.0 | 8.0 | 0.05 | 0.23 | 0.19 | 90 | 1013.4 |
| 20260505083043 | 41 | 5 | 2.0 | 8.0 | 0.04 | 0.20 | 0.16 | 90 | 1013.3 |
| 20260505081526 | 42 | 321 | 1.0 | 5.0 | 0.07 | 0.18 | 0.14 | 90 | 1013.2 |
| 20260505080033 | 42 | 360 | 1.0 | 5.0 | 0.09 | 0.18 | 0.14 | 90 | 1013.1 |
| 20260505074521 | 42 | 300 | 1.0 | 5.0 | 0.09 | 0.18 | 0.14 | 90 | 1013.0 |
| 20260505073027 | 42 | 24 | 1.0 | 5.0 | 0.08 | 0.16 | 0.12 | 89 | 1013.1 |
| 20260505071514 | 42 | 344 | 4.0 | 13.0 | 0.05 | 0.11 | 0.07 | 88 | 1013.2 |
| 20260505070010 | 43 | 38 | 2.0 | 9.0 | 0.05 | 0.09 | 0.05 | 87 | 1013.0 |
| 20260505064505 | 44 | 316 | 2.0 | 9.0 | 0.05 | 0.09 | 0.05 | 86 | 1013.0 |
| 20260505063032 | 44 | 295 | 6.0 | 12.0 | 0.04 | 0.08 | 0.04 | 83 | 1012.8 |
| 20260505061529 | 47 | 329 | 3.0 | 9.0 | 0.02 | 0.06 | 0.02 | 84 | 1012.4 |
| 20260505060047 | 48 | 323 | 0.0 | 2.0 | 0.00 | 0.04 | 0.00 | 87 | 1012.2 |
| 20260505054522 | 47 | 98 | 0.0 | 0.0 | 0.00 | 0.04 | 0.04 | 88 | 1011.9 |
| 20260505053019 | 47 | 98 | 0.0 | 0.0 | 0.00 | 0.04 | 0.04 | 88 | 1011.6 |
| 20260505051514 | 47 | 98 | 0.0 | 0.0 | 0.00 | 0.04 | 0.04 | 87 | 1011.4 |
| 20260505041524 | 48 | 63 | 0.0 | 0.0 | 0.00 | 0.04 | 0.04 | 87 | 1011.3 |
| 20260505040026 | 48 | 63 | 0.0 | 0.0 | 0.00 | 0.04 | 0.04 | 87 | 1011.2 |
| 20260505034524 | 49 | 56 | 0.0 | 1.0 | 0.00 | 0.04 | 0.04 | 87 | 1011.2 |
| 20260505033030 | 49 | 279 | 0.0 | 1.0 | 0.00 | 0.04 | 0.04 | 87 | 1011.3 |
| 20260505031515 | 49 | 273 | 0.0 | 0.0 | 0.00 | 0.04 | 0.04 | 86 | 1011.0 |
| 20260505030012 | 49 | 273 | 0.0 | 0.0 | 0.00 | 0.04 | 0.04 | 85 | 1011.0 |
| 20260505024511 | 49 | 273 | 0.0 | 0.0 | 0.00 | 0.04 | 0.04 | 85 | 1010.7 |
| 20260505023009 | 49 | 273 | 0.0 | 0.0 | 0.01 | 0.04 | 0.04 | 84 | 1010.6 |
| 20260505021528 | 50 | 273 | 0.0 | 1.0 | 0.01 | 0.04 | 0.04 | 83 | 1010.5 |
| 20260505020034 | 50 | 273 | 0.0 | 1.0 | 0.02 | 0.04 | 0.04 | 82 | 1010.6 |
| 20260505014532 | 51 | 271 | 0.0 | 1.0 | 0.02 | 0.04 | 0.04 | 82 | 1010.7 |
| 20260505013027 | 51 | 264 | 0.0 | 2.0 | 0.02 | 0.03 | 0.03 | 81 | 1010.7 |
| 20260505011526 | 52 | 269 | 0.0 | 2.0 | 0.02 | 0.03 | 0.03 | 79 | 1010.8 |
| 20260505010014 | 52 | 313 | 0.0 | 2.0 | 0.01 | 0.02 | 0.02 | 75 | 1010.4 |
| 20260505004512 | 53 | 269 | 0.0 | 3.0 | 0.02 | 0.02 | 0.02 | 73 | 1010.4 |
| 20260505003011 | 54 | 277 | 1.0 | 4.0 | 0.01 | 0.01 | 0.01 | 69 | 1010.5 |
| 20260505001527 | 54 | 275 | 0.0 | 2.0 | 0.01 | 0.01 | 0.01 | 66 | 1010.1 |
| 20260505000030 | 56 | 219 | 0.0 | 4.0 | 0.01 | 0.01 | 0.01 | 65 | 1010.1 |
| 20260504234524 | 59 | 130 | 2.0 | 16.0 | 0.00 | 0.00 | 0.00 | 50 | 1010.1 |
| 20260504233029 | 62 | 255 | 0.0 | 2.0 | 0.00 | 0.00 | 0.00 | 37 | 1009.7 |
| 20260504231519 | 63 | 279 | 1.0 | 4.0 | 0.00 | 0.00 | 0.00 | 35 | 1009.1 |
| 20260504230024 | 64 | 26 | 1.0 | 6.0 | 0.00 | 0.00 | 0.00 | 35 | 1008.6 |
| 20260504224517 | 66 | 12 | 1.0 | 5.0 | 0.00 | 0.00 | 0.00 | 33 | 1008.3 |
| 20260504223015 | 67 | 323 | 3.0 | 8.0 | 0.00 | 0.00 | 0.00 | 33 | 1008.4 |
| 20260504221508 | 67 | 310 | 2.0 | 7.0 | 0.00 | 0.00 | 0.00 | 37 | 1008.5 |
| 20260504220026 | 65 | 296 | 2.0 | 8.0 | 0.00 | 0.00 | 0.00 | 37 | 1008.8 |
| 20260504214524 | 62 | 314 | 4.0 | 9.0 | 0.00 | 0.00 | 0.00 | 36 | 1009.0 |
| 20260504213028 | 62 | 275 | 0.0 | 7.0 | 0.00 | 0.00 | 0.00 | 37 | 1009.1 |
| 20260504211533 | 64 | 290 | 3.0 | 13.0 | 0.00 | 0.00 | 0.00 | 35 | 1009.1 |
| 20260504210024 | 66 | 348 | 4.0 | 13.0 | 0.00 | 0.00 | 0.00 | 33 | 1009.0 |
| 20260504204529 | 64 | 321 | 2.0 | 11.0 | 0.00 | 0.00 | 0.00 | 35 | 1008.9 |
| 20260504203023 | 63 | 360 | 5.0 | 17.0 | 0.00 | 0.00 | 0.00 | 34 | 1008.7 |
| 20260504201516 | 64 | 34 | 8.0 | 16.0 | 0.00 | 0.00 | 0.00 | 33 | 1008.9 |
| 20260504200010 | 64 | 254 | 5.0 | 12.0 | 0.00 | 0.00 | 0.00 | 30 | 1009.3 |
| 20260504194524 | 65 | 333 | 2.0 | 9.0 | 0.00 | 0.00 | 0.00 | 30 | 1008.8 |
| 20260504193026 | 67 | 71 | 4.0 | 15.0 | 0.00 | 0.00 | 0.00 | 27 | 1008.5 |
| 20260504191526 | 68 | 5 | 2.0 | 12.0 | 0.00 | 0.00 | 0.00 | 25 | 1008.3 |
| 20260504190019 | 70 | 98 | 1.0 | 7.0 | 0.00 | 0.00 | 0.00 | 23 | 1007.9 |
| 20260504184523 | 71 | 256 | 4.0 | 9.0 | 0.00 | 0.00 | 0.00 | 22 | 1007.8 |
| 20260504183015 | 72 | 311 | 1.0 | 9.0 | 0.00 | 0.00 | 0.00 | 22 | 1007.8 |
| 20260504181514 | 72 | 292 | 2.0 | 10.0 | 0.00 | 0.00 | 0.00 | 24 | 1007.8 |
| 20260504180010 | 72 | 268 | 3.0 | 9.0 | 0.00 | 0.00 | 0.00 | 24 | 1007.8 |
| 20260504174527 | 72 | 284 | 2.0 | 7.0 | 0.00 | 0.00 | 0.00 | 24 | 1008.0 |
| 20260504173026 | 72 | 234 | 2.0 | 6.0 | 0.00 | 0.00 | 0.00 | 23 | 1008.1 |
| 20260504171524 | 72 | 240 | 0.0 | 6.0 | 0.00 | 0.00 | 0.00 | 23 | 1008.3 |